| time (UTC) | temp F | wind direction | speed MPH | gust MPH | rain 1hr in | rain 24hr in | rain mn in | humidity % | barometer mb |
| 20260903081941 | 55 | 178 | 1.0 | 7.0 | 0.00 | 0.65 | 0.00 | 98 | 1009.3 |
| 20260903081440 | 55 | 172 | 2.0 | 7.0 | 0.00 | 0.65 | 0.00 | 98 | 1009.3 |
| 20260903080940 | 55 | 199 | 4.0 | 7.0 | 0.00 | 0.65 | 0.00 | 98 | 1009.3 |
| 20260903080440 | 55 | 171 | 3.0 | 7.0 | 0.00 | 0.65 | 0.00 | 98 | 1009.3 |
| 20260903080010 | 55 | 136 | 5.0 | 7.0 | 0.00 | 0.65 | 0.00 | 98 | 1009.3 |
| 20260903075440 | 55 | 169 | 3.0 | 7.0 | 0.00 | 0.65 | 0.00 | 98 | 1009.3 |
| 20260903074940 | 55 | 202 | 3.0 | 8.0 | 0.00 | 0.65 | 0.00 | 98 | 1009.3 |
| 20260903073940 | 55 | 230 | 3.0 | 8.0 | 0.00 | 0.65 | 0.00 | 99 | 1009.3 |
| 20260903073440 | 55 | 221 | 7.0 | 8.0 | 0.00 | 0.65 | 0.00 | 100 | 1009.3 |
| 20260903072440 | 55 | 222 | 7.0 | 9.0 | 0.00 | 0.65 | 0.00 | 100 | 1009.3 |
| 20260903072010 | 56 | 189 | 4.0 | 9.0 | 0.00 | 0.65 | 0.00 | 100 | 1009.4 |
| 20260903071440 | 56 | 225 | 4.0 | 7.0 | 0.00 | 0.65 | 0.00 | 100 | 1009.4 |
| 20260903071010 | 56 | 186 | 5.0 | 8.0 | 0.01 | 0.65 | 0.00 | 100 | 1009.1 |
| 20260903070439 | 56 | 209 | 4.0 | 8.0 | 0.01 | 0.65 | 0.00 | 100 | 1009.1 |
| 20260903070010 | 56 | 205 | 7.0 | 7.0 | 0.01 | 0.65 | 0.00 | 100 | 1009.1 |
| 20260903065509 | 56 | 202 | 6.0 | 7.0 | 0.01 | 0.65 | 0.65 | 100 | 1009.1 |
| 20260903063940 | 56 | 194 | 5.0 | 6.0 | 0.01 | 0.65 | 0.65 | 100 | 1009.3 |
| 20260903063439 | 56 | 220 | 4.0 | 6.0 | 0.01 | 0.65 | 0.65 | 100 | 1009.3 |
| 20260903063009 | 56 | 220 | 3.0 | 6.0 | 0.01 | 0.65 | 0.65 | 100 | 1009.3 |
| 20260903062439 | 56 | 224 | 3.0 | 6.0 | 0.01 | 0.65 | 0.65 | 100 | 1009.3 |
| 20260903062009 | 56 | 216 | 3.0 | 6.0 | 0.01 | 0.65 | 0.65 | 100 | 1009.3 |
| 20260903061509 | 56 | 229 | 2.0 | 6.0 | 0.01 | 0.65 | 0.65 | 100 | 1009.3 |
| 20260903060939 | 56 | 181 | 2.0 | 6.0 | 0.00 | 0.64 | 0.64 | 99 | 1009.3 |
| 20260903055009 | 56 | 202 | 0.0 | 3.0 | 0.03 | 0.64 | 0.64 | 96 | 1009.3 |
| 20260903054509 | 56 | 212 | 1.0 | 4.0 | 0.03 | 0.64 | 0.64 | 96 | 1009.3 |
| 20260903054009 | 57 | 212 | 2.0 | 4.0 | 0.04 | 0.64 | 0.64 | 96 | 1009.5 |
| 20260903053509 | 57 | 213 | 0.0 | 3.0 | 0.05 | 0.64 | 0.64 | 96 | 1009.5 |
| 20260903052508 | 57 | 212 | 0.0 | 2.0 | 0.06 | 0.64 | 0.64 | 95 | 1009.4 |
| 20260903051509 | 57 | 211 | 0.0 | 4.0 | 0.06 | 0.64 | 0.64 | 95 | 1009.4 |
| 20260903051009 | 57 | 211 | 3.0 | 5.0 | 0.06 | 0.64 | 0.64 | 94 | 1009.3 |
| 20260903050438 | 57 | 206 | 4.0 | 8.0 | 0.05 | 0.63 | 0.63 | 94 | 1009.3 |
| 20260903050009 | 57 | 213 | 4.0 | 8.0 | 0.05 | 0.63 | 0.63 | 94 | 1009.3 |
| 20260903045509 | 57 | 196 | 3.0 | 7.0 | 0.04 | 0.62 | 0.62 | 94 | 1009.3 |
| 20260903045008 | 57 | 206 | 4.0 | 6.0 | 0.03 | 0.61 | 0.61 | 93 | 1009.3 |
| 20260903044008 | 57 | 205 | 6.0 | 7.0 | 0.02 | 0.60 | 0.60 | 92 | 1009.1 |
| 20260903043508 | 57 | 204 | 4.0 | 7.0 | 0.01 | 0.59 | 0.59 | 92 | 1009.1 |
| 20260903042508 | 57 | 215 | 6.0 | 6.0 | 0.00 | 0.58 | 0.58 | 92 | 1008.9 |
| 20260903042008 | 57 | 190 | 3.0 | 6.0 | 0.00 | 0.58 | 0.58 | 92 | 1008.9 |
| 20260903041438 | 57 | 215 | 6.0 | 6.0 | 0.00 | 0.58 | 0.58 | 92 | 1008.9 |
| 20260903040508 | 57 | 185 | 2.0 | 7.0 | 0.00 | 0.58 | 0.58 | 92 | 1008.7 |
| 20260903035508 | 57 | 205 | 5.0 | 5.0 | 0.00 | 0.58 | 0.58 | 92 | 1008.7 |
| 20260903035008 | 57 | 215 | 0.0 | 4.0 | 0.00 | 0.58 | 0.58 | 92 | 1008.7 |
| 20260903034508 | 57 | 182 | 3.0 | 4.0 | 0.00 | 0.58 | 0.58 | 92 | 1008.7 |
| 20260903033938 | 57 | 209 | 0.0 | 3.0 | 0.00 | 0.58 | 0.58 | 92 | 1008.4 |
| 20260903033508 | 57 | 205 | 0.0 | 3.0 | 0.00 | 0.58 | 0.58 | 92 | 1008.4 |
| 20260903033009 | 57 | 194 | 0.0 | 3.0 | 0.00 | 0.58 | 0.58 | 92 | 1008.4 |
| 20260903032509 | 57 | 218 | 1.0 | 3.0 | 0.00 | 0.58 | 0.58 | 91 | 1008.3 |
| 20260903032008 | 57 | 213 | 2.0 | 3.0 | 0.00 | 0.58 | 0.58 | 91 | 1008.3 |
| 20260903031509 | 58 | 233 | 0.0 | 3.0 | 0.00 | 0.58 | 0.58 | 90 | 1008.3 |
| 20260903031008 | 58 | 225 | 0.0 | 2.0 | 0.00 | 0.58 | 0.58 | 90 | 1008.3 |
| 20260903030009 | 58 | 225 | 0.0 | 0.0 | 0.00 | 0.58 | 0.58 | 90 | 1008.3 |
| 20260903025008 | 58 | 225 | 0.0 | 0.0 | 0.00 | 0.58 | 0.58 | 88 | 1008.1 |
| 20260903024508 | 58 | 225 | 0.0 | 0.0 | 0.00 | 0.58 | 0.58 | 87 | 1008.1 |
| 20260903024008 | 59 | 225 | 0.0 | 0.0 | 0.00 | 0.58 | 0.58 | 86 | 1008.2 |
| 20260903023439 | 59 | 225 | 0.0 | 0.0 | 0.00 | 0.58 | 0.58 | 86 | 1008.2 |
| 20260903022508 | 59 | 225 | 0.0 | 2.0 | 0.00 | 0.58 | 0.58 | 85 | 1008.1 |
| 20260903022008 | 59 | 224 | 0.0 | 2.0 | 0.00 | 0.58 | 0.58 | 85 | 1008.1 |
| 20260903021508 | 59 | 223 | 0.0 | 2.0 | 0.00 | 0.58 | 0.58 | 85 | 1008.1 |
| 20260903021008 | 60 | 215 | 1.0 | 5.0 | 0.00 | 0.58 | 0.58 | 85 | 1007.8 |
| 20260903020508 | 60 | 360 | 0.0 | 5.0 | 0.00 | 0.58 | 0.58 | 85 | 1007.8 |
| 20260903020008 | 60 | 360 | 2.0 | 3.0 | 0.00 | 0.58 | 0.58 | 85 | 1007.8 |
| 20260903015008 | 60 | 360 | 0.0 | 3.0 | 0.00 | 0.58 | 0.58 | 85 | 1007.8 |
| 20260903014508 | 60 | 360 | 0.0 | 4.0 | 0.00 | 0.58 | 0.58 | 85 | 1007.8 |
| 20260903014008 | 60 | 360 | 0.0 | 4.0 | 0.00 | 0.58 | 0.58 | 86 | 1007.7 |
| 20260903013438 | 60 | 360 | 0.0 | 4.0 | 0.00 | 0.58 | 0.58 | 87 | 1007.7 |
| 20260903012937 | 61 | 360 | 0.0 | 2.0 | 0.00 | 0.58 | 0.58 | 88 | 1007.7 |
| 20260903012508 | 61 | 360 | 0.0 | 2.0 | 0.00 | 0.58 | 0.58 | 89 | 1007.5 |
| 20260903011507 | 61 | 360 | 0.0 | 5.0 | 0.00 | 0.58 | 0.58 | 90 | 1007.5 |
| 20260903011007 | 61 | 360 | 0.0 | 5.0 | 0.01 | 0.58 | 0.58 | 90 | 1007.4 |
| 20260903010007 | 61 | 360 | 0.0 | 5.0 | 0.02 | 0.58 | 0.58 | 92 | 1007.4 |
| 20260903005507 | 61 | 360 | 1.0 | 5.0 | 0.02 | 0.58 | 0.58 | 93 | 1007.4 |
| 20260903005008 | 61 | 360 | 2.0 | 5.0 | 0.02 | 0.58 | 0.58 | 93 | 1007.4 |
| 20260903004507 | 61 | 360 | 0.0 | 4.0 | 0.02 | 0.58 | 0.58 | 94 | 1007.4 |
| 20260903004007 | 60 | 360 | 0.0 | 4.0 | 0.02 | 0.58 | 0.58 | 93 | 1007.4 |
| 20260903003507 | 60 | 360 | 0.0 | 2.0 | 0.02 | 0.58 | 0.58 | 93 | 1007.4 |
| 20260903002007 | 60 | 210 | 2.0 | 3.0 | 0.02 | 0.58 | 0.58 | 91 | 1007.3 |
| 20260903001508 | 60 | 53 | 0.0 | 1.0 | 0.02 | 0.58 | 0.58 | 90 | 1007.3 |
| 20260903001006 | 60 | 38 | 0.0 | 2.0 | 0.01 | 0.57 | 0.57 | 89 | 1007.2 |
| 20260903000007 | 60 | 360 | 0.0 | 2.0 | 0.00 | 0.56 | 0.56 | 89 | 1007.2 |
| 20260902235506 | 60 | 360 | 2.0 | 3.0 | 0.00 | 0.56 | 0.56 | 89 | 1007.0 |
| 20260902235006 | 60 | 360 | 2.0 | 4.0 | 0.00 | 0.56 | 0.56 | 90 | 1007.0 |
| 20260902234506 | 61 | 360 | 0.0 | 4.0 | 0.00 | 0.56 | 0.56 | 91 | 1007.0 |
| 20260902234006 | 61 | 360 | 1.0 | 4.0 | 0.00 | 0.56 | 0.56 | 93 | 1006.8 |
| 20260902233506 | 61 | 360 | 0.0 | 2.0 | 0.00 | 0.56 | 0.56 | 95 | 1006.8 |
| 20260902232506 | 61 | 360 | 1.0 | 3.0 | 0.00 | 0.56 | 0.56 | 97 | 1006.6 |
| 20260902232006 | 61 | 360 | 0.0 | 3.0 | 0.00 | 0.56 | 0.56 | 98 | 1006.6 |
| 20260902231507 | 61 | 360 | 0.0 | 2.0 | 0.00 | 0.56 | 0.56 | 96 | 1006.6 |
| 20260902231006 | 60 | 360 | 0.0 | 2.0 | 0.01 | 0.56 | 0.56 | 97 | 1006.7 |
| 20260902230506 | 60 | 360 | 0.0 | 3.0 | 0.01 | 0.56 | 0.56 | 96 | 1006.7 |
| 20260902230006 | 60 | 360 | 1.0 | 3.0 | 0.02 | 0.56 | 0.56 | 96 | 1006.7 |
| 20260902225506 | 60 | 360 | 0.0 | 4.0 | 0.04 | 0.56 | 0.56 | 98 | 1006.4 |
| 20260902225006 | 60 | 360 | 2.0 | 4.0 | 0.05 | 0.56 | 0.56 | 99 | 1006.4 |
| 20260902224505 | 60 | 360 | 3.0 | 4.0 | 0.05 | 0.56 | 0.56 | 100 | 1006.4 |
| 20260902224005 | 60 | 360 | 1.0 | 4.0 | 0.06 | 0.56 | 0.56 | 100 | 1006.4 |
| 20260902223505 | 59 | 360 | 2.0 | 4.0 | 0.07 | 0.56 | 0.56 | 99 | 1006.4 |
| 20260902221006 | 59 | 227 | 1.0 | 4.0 | 0.08 | 0.55 | 0.55 | 100 | 1006.3 |
| 20260902220505 | 59 | 219 | 4.0 | 5.0 | 0.08 | 0.55 | 0.55 | 100 | 1006.3 |
| 20260902220005 | 59 | 205 | 0.0 | 7.0 | 0.07 | 0.54 | 0.54 | 100 | 1006.3 |
| 20260902215505 | 59 | 172 | 1.0 | 9.0 | 0.06 | 0.52 | 0.52 | 100 | 1006.2 |
| 20260902215005 | 59 | 238 | 7.0 | 9.0 | 0.05 | 0.51 | 0.51 | 100 | 1006.2 |
| 20260902214505 | 59 | 203 | 6.0 | 10.0 | 0.06 | 0.51 | 0.51 | 100 | 1006.2 |
| 20260902213505 | 60 | 196 | 2.0 | 7.0 | 0.05 | 0.49 | 0.49 | 100 | 1006.2 |
| 20260902213006 | 60 | 205 | 6.0 | 7.0 | 0.06 | 0.49 | 0.49 | 100 | 1006.2 |
| 20260902212505 | 60 | 197 | 4.0 | 7.0 | 0.07 | 0.49 | 0.49 | 100 | 1005.9 |
| 20260902211505 | 59 | 197 | 4.0 | 9.0 | 0.08 | 0.49 | 0.49 | 100 | 1005.9 |
| 20260902211005 | 59 | 214 | 2.0 | 9.0 | 0.07 | 0.47 | 0.47 | 100 | 1006.0 |
| 20260902210505 | 59 | 174 | 2.0 | 8.0 | 0.07 | 0.47 | 0.47 | 100 | 1006.0 |
| 20260902210005 | 59 | 199 | 5.0 | 8.0 | 0.08 | 0.47 | 0.47 | 100 | 1006.0 |
| 20260902205005 | 59 | 198 | 5.0 | 7.0 | 0.08 | 0.46 | 0.46 | 100 | 1005.8 |
| 20260902204505 | 59 | 217 | 4.0 | 7.0 | 0.07 | 0.45 | 0.45 | 100 | 1005.8 |
| 20260902203005 | 58 | 221 | 4.0 | 10.0 | 0.07 | 0.43 | 0.43 | 100 | 1005.8 |
| 20260902202005 | 59 | 225 | 2.0 | 9.0 | 0.06 | 0.41 | 0.41 | 100 | 1005.7 |
| 20260902201504 | 58 | 192 | 2.0 | 9.0 | 0.07 | 0.41 | 0.41 | 100 | 1005.7 |
| 20260902201005 | 58 | 185 | 3.0 | 9.0 | 0.08 | 0.40 | 0.40 | 100 | 1005.6 |
| 20260902200504 | 58 | 200 | 5.0 | 9.0 | 0.10 | 0.40 | 0.40 | 100 | 1005.6 |
| 20260902200005 | 58 | 217 | 5.0 | 9.0 | 0.10 | 0.39 | 0.39 | 100 | 1005.6 |
| 20260902195005 | 58 | 211 | 6.0 | 11.0 | 0.10 | 0.38 | 0.38 | 100 | 1005.6 |
| 20260902194504 | 58 | 148 | 4.0 | 11.0 | 0.11 | 0.38 | 0.38 | 100 | 1005.6 |
| 20260902194004 | 58 | 194 | 5.0 | 11.0 | 0.10 | 0.37 | 0.37 | 100 | 1005.5 |
| 20260902193504 | 58 | 188 | 3.0 | 12.0 | 0.12 | 0.37 | 0.37 | 99 | 1005.5 |
| 20260902193005 | 58 | 190 | 7.0 | 12.0 | 0.12 | 0.36 | 0.36 | 98 | 1005.5 |
| 20260902192004 | 58 | 179 | 6.0 | 11.0 | 0.12 | 0.35 | 0.35 | 97 | 1005.5 |
| 20260902191504 | 58 | 198 | 6.0 | 12.0 | 0.12 | 0.34 | 0.34 | 96 | 1005.5 |
| 20260902191004 | 58 | 204 | 4.0 | 12.0 | 0.11 | 0.32 | 0.32 | 95 | 1005.7 |
| 20260902190504 | 58 | 157 | 4.0 | 12.0 | 0.10 | 0.30 | 0.30 | 95 | 1005.7 |
| 20260902190004 | 58 | 214 | 6.0 | 12.0 | 0.10 | 0.29 | 0.29 | 94 | 1005.7 |
| 20260902185505 | 58 | 218 | 7.0 | 7.0 | 0.11 | 0.28 | 0.28 | 95 | 1005.7 |
| 20260902185004 | 57 | 188 | 3.0 | 8.0 | 0.14 | 0.28 | 0.28 | 94 | 1005.7 |
| 20260902184504 | 57 | 197 | 3.0 | 8.0 | 0.14 | 0.27 | 0.27 | 94 | 1005.7 |
| 20260902184004 | 57 | 192 | 2.0 | 9.0 | 0.16 | 0.27 | 0.27 | 93 | 1005.6 |
| 20260902183504 | 57 | 213 | 5.0 | 11.0 | 0.15 | 0.25 | 0.25 | 92 | 1005.6 |
| 20260902183004 | 57 | 219 | 8.0 | 11.0 | 0.15 | 0.24 | 0.24 | 92 | 1005.6 |
| 20260902182004 | 57 | 153 | 5.0 | 11.0 | 0.15 | 0.23 | 0.23 | 92 | 1005.8 |
| 20260902181504 | 57 | 202 | 4.0 | 9.0 | 0.14 | 0.22 | 0.22 | 92 | 1005.8 |
| 20260902181004 | 58 | 190 | 3.0 | 7.0 | 0.13 | 0.21 | 0.21 | 92 | 1005.9 |
| 20260902180504 | 58 | 192 | 3.0 | 7.0 | 0.13 | 0.20 | 0.20 | 91 | 1005.9 |
| 20260902180006 | 58 | 209 | 4.0 | 7.0 | 0.12 | 0.19 | 0.19 | 91 | 1005.9 |
| 20260902175004 | 58 | 200 | 2.0 | 5.0 | 0.09 | 0.14 | 0.14 | 90 | 1005.7 |
| 20260902174504 | 58 | 196 | 0.0 | 5.0 | 0.08 | 0.13 | 0.13 | 89 | 1005.7 |
| 20260902174004 | 58 | 210 | 0.0 | 5.0 | 0.07 | 0.11 | 0.11 | 89 | 1006.1 |
| 20260902172503 | 58 | 186 | 2.0 | 7.0 | 0.06 | 0.08 | 0.08 | 89 | 1006.1 |
| 20260902172004 | 58 | 139 | 3.0 | 8.0 | 0.06 | 0.08 | 0.08 | 89 | 1006.1 |
| 20260902171503 | 58 | 186 | 3.0 | 8.0 | 0.07 | 0.08 | 0.08 | 88 | 1006.1 |
| 20260902171003 | 58 | 234 | 6.0 | 9.0 | 0.07 | 0.08 | 0.08 | 88 | 1006.2 |
| 20260902170504 | 58 | 230 | 1.0 | 9.0 | 0.07 | 0.07 | 0.07 | 88 | 1006.2 |
| 20260902170004 | 58 | 213 | 5.0 | 9.0 | 0.07 | 0.07 | 0.07 | 88 | 1006.2 |
| 20260902165504 | 58 | 197 | 1.0 | 7.0 | 0.06 | 0.06 | 0.06 | 87 | 1006.3 |
| 20260902164003 | 58 | 194 | 5.0 | 8.0 | 0.04 | 0.04 | 0.04 | 86 | 1006.3 |
| 20260902163504 | 59 | 207 | 3.0 | 6.0 | 0.04 | 0.04 | 0.04 | 86 | 1006.3 |
| 20260902162503 | 59 | 218 | 0.0 | 7.0 | 0.02 | 0.02 | 0.02 | 85 | 1006.2 |
| 20260902162004 | 59 | 246 | 2.0 | 7.0 | 0.02 | 0.02 | 0.02 | 84 | 1006.2 |
| 20260902161003 | 59 | 214 | 6.0 | 8.0 | 0.01 | 0.01 | 0.01 | 83 | 1006.1 |
| 20260902160503 | 59 | 211 | 3.0 | 8.0 | 0.00 | 0.00 | 0.00 | 83 | 1006.1 |
| 20260902155503 | 60 | 189 | 2.0 | 5.0 | 0.00 | 0.00 | 0.00 | 83 | 1006.1 |
| 20260902155004 | 60 | 202 | 4.0 | 5.0 | 0.00 | 0.00 | 0.00 | 83 | 1006.1 |
| 20260902154503 | 60 | 185 | 1.0 | 4.0 | 0.00 | 0.00 | 0.00 | 83 | 1006.1 |
| 20260902153503 | 60 | 176 | 3.0 | 4.0 | 0.00 | 0.00 | 0.00 | 83 | 1006.2 |
| 20260902153003 | 60 | 178 | 0.0 | 4.0 | 0.00 | 0.00 | 0.00 | 83 | 1006.2 |
| 20260902152503 | 60 | 154 | 0.0 | 3.0 | 0.00 | 0.00 | 0.00 | 83 | 1006.3 |
| 20260902152003 | 60 | 148 | 1.0 | 4.0 | 0.00 | 0.00 | 0.00 | 82 | 1006.3 |
| 20260902151503 | 60 | 153 | 1.0 | 4.0 | 0.00 | 0.00 | 0.00 | 82 | 1006.3 |
| 20260902151003 | 60 | 154 | 2.0 | 3.0 | 0.00 | 0.00 | 0.00 | 82 | 1006.4 |
| 20260902150503 | 60 | 186 | 1.0 | 5.0 | 0.00 | 0.00 | 0.00 | 83 | 1006.4 |
| 20260902150003 | 60 | 188 | 1.0 | 5.0 | 0.00 | 0.00 | 0.00 | 83 | 1006.4 |
| 20260902145503 | 60 | 176 | 0.0 | 2.0 | 0.00 | 0.00 | 0.00 | 83 | 1006.6 |
| 20260902145003 | 60 | 168 | 0.0 | 4.0 | 0.00 | 0.00 | 0.00 | 83 | 1006.6 |
| 20260902144503 | 59 | 207 | 0.0 | 4.0 | 0.00 | 0.00 | 0.00 | 83 | 1006.6 |
| 20260902143503 | 59 | 156 | 2.0 | 5.0 | 0.00 | 0.00 | 0.00 | 83 | 1006.7 |
| 20260902143003 | 59 | 161 | 2.0 | 4.0 | 0.00 | 0.00 | 0.00 | 83 | 1006.7 |
| 20260902142003 | 60 | 174 | 3.0 | 6.0 | 0.00 | 0.00 | 0.00 | 82 | 1006.9 |
| 20260902141502 | 60 | 181 | 3.0 | 6.0 | 0.00 | 0.00 | 0.00 | 81 | 1006.9 |
| 20260902141002 | 60 | 196 | 3.0 | 6.0 | 0.00 | 0.00 | 0.00 | 81 | 1007.0 |
| 20260902140502 | 60 | 210 | 1.0 | 6.0 | 0.00 | 0.00 | 0.00 | 80 | 1007.0 |
| 20260902135502 | 60 | 172 | 1.0 | 2.0 | 0.00 | 0.00 | 0.00 | 79 | 1007.0 |
| 20260902135003 | 60 | 174 | 0.0 | 5.0 | 0.00 | 0.00 | 0.00 | 79 | 1007.0 |
| 20260902134503 | 60 | 179 | 0.0 | 5.0 | 0.00 | 0.00 | 0.00 | 79 | 1007.0 |
| 20260902134002 | 60 | 182 | 0.0 | 4.0 | 0.00 | 0.00 | 0.00 | 79 | 1007.3 |
| 20260902133502 | 60 | 180 | 0.0 | 4.0 | 0.00 | 0.00 | 0.00 | 79 | 1007.3 |
| 20260902132502 | 60 | 202 | 2.0 | 6.0 | 0.00 | 0.00 | 0.00 | 79 | 1007.4 |
| 20260902132002 | 60 | 165 | 2.0 | 7.0 | 0.00 | 0.00 | 0.00 | 79 | 1007.4 |
| 20260902131502 | 60 | 168 | 2.0 | 7.0 | 0.00 | 0.00 | 0.00 | 79 | 1007.4 |
| 20260902131002 | 60 | 184 | 4.0 | 6.0 | 0.00 | 0.00 | 0.00 | 79 | 1007.6 |
| 20260902130002 | 60 | 181 | 3.0 | 7.0 | 0.00 | 0.00 | 0.00 | 79 | 1007.6 |
| 20260902125502 | 60 | 197 | 2.0 | 7.0 | 0.00 | 0.00 | 0.00 | 79 | 1007.9 |
| 20260902124502 | 60 | 203 | 6.0 | 7.0 | 0.00 | 0.00 | 0.00 | 79 | 1007.9 |
| 20260902123001 | 60 | 226 | 4.0 | 4.0 | 0.00 | 0.00 | 0.00 | 80 | 1008.0 |
| 20260902122502 | 59 | 215 | 2.0 | 5.0 | 0.00 | 0.00 | 0.00 | 80 | 1008.2 |
| 20260902122001 | 59 | 194 | 2.0 | 5.0 | 0.00 | 0.00 | 0.00 | 80 | 1008.2 |
| 20260902121001 | 59 | 203 | 1.0 | 3.0 | 0.00 | 0.00 | 0.00 | 80 | 1008.4 |
| 20260902120501 | 59 | 180 | 0.0 | 2.0 | 0.00 | 0.00 | 0.00 | 80 | 1008.4 |
| 20260902120002 | 59 | 180 | 1.0 | 2.0 | 0.00 | 0.00 | 0.00 | 80 | 1008.4 |
| 20260902115501 | 59 | 173 | 2.0 | 3.0 | 0.00 | 0.00 | 0.00 | 80 | 1008.6 |
| 20260902114501 | 59 | 136 | 1.0 | 4.0 | 0.00 | 0.00 | 0.00 | 79 | 1008.6 |
| 20260902114001 | 59 | 155 | 2.0 | 3.0 | 0.00 | 0.00 | 0.00 | 79 | 1008.8 |
| 20260902113501 | 60 | 190 | 1.0 | 4.0 | 0.00 | 0.00 | 0.00 | 79 | 1008.8 |
| 20260902113001 | 59 | 205 | 2.0 | 4.0 | 0.00 | 0.00 | 0.00 | 79 | 1008.8 |
| 20260902112501 | 59 | 181 | 2.0 | 4.0 | 0.00 | 0.00 | 0.00 | 79 | 1009.0 |
| 20260902112001 | 59 | 193 | 2.0 | 4.0 | 0.00 | 0.00 | 0.00 | 79 | 1009.0 |
| 20260902111501 | 59 | 144 | 3.0 | 4.0 | 0.00 | 0.00 | 0.00 | 80 | 1009.0 |
| 20260902111001 | 59 | 210 | 3.0 | 4.0 | 0.00 | 0.00 | 0.00 | 80 | 1009.2 |
| 20260902110001 | 59 | 202 | 3.0 | 4.0 | 0.00 | 0.00 | 0.00 | 79 | 1009.2 |
| 20260902105501 | 60 | 203 | 1.0 | 5.0 | 0.00 | 0.00 | 0.00 | 79 | 1009.5 |
| 20260902105001 | 60 | 159 | 2.0 | 5.0 | 0.00 | 0.00 | 0.00 | 78 | 1009.5 |
| 20260902104501 | 60 | 159 | 0.0 | 4.0 | 0.00 | 0.00 | 0.00 | 78 | 1009.5 |
| 20260902104001 | 60 | 160 | 0.0 | 5.0 | 0.00 | 0.00 | 0.00 | 77 | 1009.6 |
| 20260902103500 | 60 | 176 | 1.0 | 5.0 | 0.00 | 0.00 | 0.00 | 77 | 1009.6 |
| 20260902103000 | 60 | 173 | 3.0 | 5.0 | 0.00 | 0.00 | 0.00 | 77 | 1009.6 |
| 20260902102500 | 60 | 211 | 3.0 | 6.0 | 0.00 | 0.00 | 0.00 | 77 | 1009.7 |
| 20260902102000 | 60 | 218 | 3.0 | 7.0 | 0.00 | 0.00 | 0.00 | 78 | 1009.7 |
| 20260902101501 | 60 | 221 | 2.0 | 7.0 | 0.00 | 0.00 | 0.00 | 78 | 1009.7 |
| 20260902101001 | 59 | 200 | 4.0 | 4.0 | 0.00 | 0.00 | 0.00 | 79 | 1009.7 |
| 20260902100500 | 59 | 184 | 1.0 | 3.0 | 0.00 | 0.00 | 0.00 | 79 | 1009.7 |
| 20260902100000 | 59 | 185 | 1.0 | 4.0 | 0.00 | 0.00 | 0.00 | 80 | 1009.7 |
| 20260902095000 | 59 | 157 | 1.0 | 3.0 | 0.00 | 0.00 | 0.00 | 80 | 1009.9 |
| 20260902094501 | 59 | 183 | 1.0 | 3.0 | 0.00 | 0.00 | 0.00 | 80 | 1009.9 |
| 20260902093500 | 59 | 182 | 2.0 | 5.0 | 0.00 | 0.00 | 0.00 | 80 | 1010.0 |
| 20260902093000 | 59 | 161 | 3.0 | 5.0 | 0.00 | 0.00 | 0.00 | 81 | 1010.0 |
| 20260902092500 | 59 | 185 | 2.0 | 4.0 | 0.00 | 0.00 | 0.00 | 80 | 1010.0 |
| 20260902091500 | 59 | 186 | 2.0 | 5.0 | 0.00 | 0.00 | 0.00 | 80 | 1010.0 |
| 20260902091000 | 59 | 189 | 3.0 | 5.0 | 0.00 | 0.00 | 0.00 | 79 | 1010.1 |
| 20260902090500 | 59 | 190 | 1.0 | 4.0 | 0.00 | 0.00 | 0.00 | 79 | 1010.1 |
| 20260902090001 | 60 | 187 | 1.0 | 5.0 | 0.00 | 0.00 | 0.00 | 79 | 1010.1 |
| 20260902085501 | 60 | 201 | 1.0 | 5.0 | 0.00 | 0.00 | 0.00 | 79 | 1010.4 |
| 20260902084500 | 59 | 198 | 0.0 | 4.0 | 0.00 | 0.00 | 0.00 | 79 | 1010.4 |
| 20260902084001 | 59 | 185 | 2.0 | 6.0 | 0.00 | 0.00 | 0.00 | 79 | 1010.4 |
| 20260902083500 | 60 | 199 | 2.0 | 6.0 | 0.00 | 0.00 | 0.00 | 79 | 1010.4 |
| 20260902082500 | 60 | 182 | 0.0 | 2.0 | 0.00 | 0.00 | 0.00 | 80 | 1010.5 |